When you browse on this site, cookies collect data to enhance your experience and personalize the content and advertising you see.
Visit our Privacy Policy to learn more. By continuing to use the site, you agree to this use of cookies and data.
  • Em Portugal
  • Lista de países
  • Para 7 dias
  • Temperatura da água
  • Mapa do tempo
  • Widgets de tempo
  • user-avatar
    Iniciar Sessão

    Previsão horária em Bandar Abbas

    Hoje, 26 Agosto, Segunda-feira

    Tempo Temperatura Precipitação Vento Pressão Humidade
    00:00 +32°C° 0 mm 2 m/s 751 mmHg 65%
    01:00 +32°C° 0 mm 2 m/s 752 mmHg 68%
    02:00 +31°C° 0 mm 2 m/s 751 mmHg 67%
    03:00 +31°C° 0 mm 2 m/s 751 mmHg 67%
    04:00 +31°C° 0 mm 2 m/s 751 mmHg 64%
    05:00 +32°C° 0 mm 2 m/s 752 mmHg 59%
    06:00 +34°C° 0 mm 2 m/s 752 mmHg 54%
    07:00 +35°C° 0 mm 2 m/s 753 mmHg 49%
    08:00 +37°C° 0 mm 2 m/s 752 mmHg 41%
    09:00 +39°C° 0 mm 1 m/s 752 mmHg 33%
    10:00 +41°C° 0 mm 1 m/s 752 mmHg 25%
    11:00 +42°C° 0 mm 1 m/s 752 mmHg 23%
    12:00 +43°C° 0 mm 2 m/s 752 mmHg 21%
    13:00 +45°C° 0 mm 3 m/s 751 mmHg 19%
    14:00 +45°C° 0 mm 4 m/s 751 mmHg 21%
    15:00 +45°C° 0 mm 5 m/s 750 mmHg 23%
    16:00 +45°C° 0 mm 6 m/s 749 mmHg 25%
    17:00 +42°C° 0 mm 5 m/s 750 mmHg 32%
    18:00 +38°C° 0 mm 3 m/s 750 mmHg 40%
    19:00 +36°C° 0 mm 2 m/s 750 mmHg 47%
    20:00 +35°C° 0 mm 2 m/s 751 mmHg 54%
    21:00 +34°C° 0 mm 3 m/s 751 mmHg 61%
    22:00 +33°C° 0 mm 3 m/s 752 mmHg 68%
    23:00 +33°C° 0 mm 3 m/s 752 mmHg 67%

    Amanhã, 27 Agosto, Terça-feira

    Tempo Temperatura Precipitação Vento Pressão Humidade
    00:00 +33°C° 0 mm 3 m/s 752 mmHg 66%
    01:00 +31°C° 0 mm 3 m/s 752 mmHg 64%
    02:00 +31°C° 0 mm 2 m/s 752 mmHg 63%
    03:00 +30°C° 0 mm 2 m/s 751 mmHg 62%
    04:00 +30°C° 0 mm 1 m/s 751 mmHg 61%
    05:00 +31°C° 0 mm 2 m/s 752 mmHg 58%
    06:00 +32°C° 0 mm 2 m/s 752 mmHg 54%
    07:00 +34°C° 0 mm 2 m/s 752 mmHg 50%
    08:00 +36°C° 0 mm 2 m/s 752 mmHg 42%
    09:00 +39°C° 0 mm 2 m/s 752 mmHg 33%
    10:00 +41°C° 0 mm 1 m/s 752 mmHg 24%
    11:00 +42°C° 0 mm 2 m/s 752 mmHg 21%
    12:00 +43°C° 0 mm 2 m/s 751 mmHg 18%
    13:00 +46°C° 0 mm 3 m/s 751 mmHg 15%
    14:00 +46°C° 0 mm 3 m/s 750 mmHg 15%
    15:00 +47°C° 0 mm 4 m/s 750 mmHg 14%
    16:00 +47°C° 0 mm 4 m/s 749 mmHg 14%
    17:00 +44°C° 0 mm 4 m/s 749 mmHg 18%
    18:00 +42°C° 0 mm 4 m/s 749 mmHg 22%
    19:00 +38°C° 0 mm 4 m/s 750 mmHg 26%
    20:00 +38°C° 0 mm 4 m/s 750 mmHg 30%
    21:00 +37°C° 0 mm 4 m/s 751 mmHg 34%
    22:00 +36°C° 0 mm 5 m/s 751 mmHg 38%
    23:00 +35°C° 0 mm 4 m/s 751 mmHg 40%

    Depois de amanhã, 28 Agosto, Quarta-feira

    Tempo Temperatura Precipitação Vento Pressão Humidade
    00:00 +34°C° 0 mm 3 m/s 751 mmHg 42%
    01:00 +33°C° 0 mm 1 m/s 751 mmHg 44%
    02:00 +32°C° 0 mm 1 m/s 751 mmHg 42%
    03:00 +31°C° 0 mm 1 m/s 751 mmHg 40%
    04:00 +31°C° 0 mm 1 m/s 750 mmHg 38%
    05:00 +32°C° 0 mm 1 m/s 751 mmHg 35%
    06:00 +33°C° 0 mm 1 m/s 751 mmHg 31%
    07:00 +35°C° 0 mm 1 m/s 752 mmHg 27%
    08:00 +37°C° 0 mm 1 m/s 752 mmHg 22%
    09:00 +41°C° 0 mm 2 m/s 752 mmHg 16%
    10:00 +45°C° 0 mm 3 m/s 752 mmHg 11%
    11:00 +46°C° 0 mm 2 m/s 751 mmHg 10%
    12:00 +47°C° 0 mm 2 m/s 751 mmHg 9%
    13:00 +48°C° 0 mm 2 m/s 750 mmHg 8%
    14:00 +47°C° 0 mm 3 m/s 750 mmHg 8%
    15:00 +48°C° 0 mm 4 m/s 749 mmHg 8%
    16:00 +48°C° 0 mm 5 m/s 749 mmHg 8%
    17:00 +46°C° 0 mm 5 m/s 749 mmHg 11%
    18:00 +42°C° 0 mm 5 m/s 749 mmHg 14%
    19:00 +40°C° 0 mm 5 m/s 749 mmHg 17%
    20:00 +38°C° 0 mm 4 m/s 750 mmHg 18%
    21:00 +37°C° 0 mm 3 m/s 750 mmHg 19%
    22:00 +37°C° 0 mm 3 m/s 751 mmHg 20%
    23:00 +36°C° 0 mm 3 m/s 751 mmHg 20%

    29 Agosto, Quinta-feira

    Tempo Temperatura Precipitação Vento Pressão Humidade
    00:00 +35°C° 0 mm 2 m/s 751 mmHg 21%
    01:00 +34°C° 0 mm 2 m/s 751 mmHg 22%
    02:00 +32°C° 0 mm 2 m/s 751 mmHg 23%
    03:00 +32°C° 0 mm 2 m/s 751 mmHg 24%
    04:00 +31°C° 0 mm 2 m/s 751 mmHg 25%
    05:00 +32°C° 0 mm 2 m/s 751 mmHg 23%
    06:00 +34°C° 0 mm 2 m/s 752 mmHg 21%
    07:00 +35°C° 0 mm 2 m/s 752 mmHg 19%
    08:00 +38°C° 0 mm 2 m/s 752 mmHg 16%
    09:00 +41°C° 0 mm 1 m/s 752 mmHg 12%
    10:00 +44°C° 0 mm 1 m/s 752 mmHg 9%
    11:00 +45°C° 0 mm 1 m/s 752 mmHg 9%
    12:00 +47°C° 0 mm 2 m/s 751 mmHg 8%
    13:00 +48°C° 0 mm 2 m/s 751 mmHg 8%
    14:00 +48°C° 0 mm 2 m/s 750 mmHg 8%
    15:00 +48°C° 0 mm 3 m/s 749 mmHg 7%
    16:00 +48°C° 0 mm 3 m/s 749 mmHg 7%
    17:00 +45°C° 0 mm 4 m/s 749 mmHg 11%
    18:00 +43°C° 0 mm 4 m/s 749 mmHg 14%
    19:00 +40°C° 0 mm 5 m/s 749 mmHg 17%
    20:00 +38°C° 0 mm 4 m/s 750 mmHg 18%
    21:00 +38°C° 0 mm 3 m/s 750 mmHg 19%
    22:00 +37°C° 0 mm 2 m/s 751 mmHg 21%
    23:00 +36°C° 0 mm 3 m/s 751 mmHg 25%

    30 Agosto, Sexta-feira

    Tempo Temperatura Precipitação Vento Pressão Humidade
    00:00 +35°C° 0 mm 3 m/s 751 mmHg 30%
    01:00 +33°C° 0 mm 3 m/s 750 mmHg 34%
    02:00 +33°C° 0 mm 3 m/s 750 mmHg 36%
    03:00 +31°C° 0 mm 3 m/s 750 mmHg 38%
    04:00 +30°C° 0 mm 3 m/s 750 mmHg 39%
    05:00 +33°C° 0 mm 3 m/s 750 mmHg 35%
    06:00 +34°C° 0 mm 2 m/s 751 mmHg 31%
    07:00 +35°C° 0 mm 2 m/s 751 mmHg 27%
    08:00 +38°C° 0 mm 2 m/s 751 mmHg 22%
    09:00 +42°C° 0 mm 2 m/s 751 mmHg 17%
    10:00 +46°C° 0 mm 2 m/s 752 mmHg 11%
    11:00 +46°C° 0 mm 3 m/s 751 mmHg 13%
    12:00 +47°C° 0 mm 4 m/s 751 mmHg 15%
    13:00 +47°C° 0 mm 5 m/s 750 mmHg 16%
    14:00 +47°C° 0 mm 6 m/s 750 mmHg 15%
    15:00 +48°C° 0 mm 6 m/s 749 mmHg 13%
    16:00 +50°C° 0 mm 7 m/s 748 mmHg 11%
    17:00 +46°C° 0 mm 6 m/s 748 mmHg 16%
    18:00 +42°C° 0 mm 5 m/s 748 mmHg 21%
    19:00 +40°C° 0 mm 4 m/s 748 mmHg 26%
    20:00 +37°C° 0 mm 4 m/s 749 mmHg 31%
    21:00 +36°C° 0 mm 4 m/s 749 mmHg 37%
    22:00 +34°C° 0 mm 4 m/s 750 mmHg 42%
    23:00 +34°C° 0 mm 3 m/s 750 mmHg 43%

    31 Agosto, Sábado

    Tempo Temperatura Precipitação Vento Pressão Humidade
    00:00 +32°C° 0 mm 2 m/s 750 mmHg 44%
    01:00 +31°C° 0 mm 2 m/s 749 mmHg 45%
    02:00 +31°C° 0 mm 2 m/s 749 mmHg 42%
    03:00 +31°C° 0 mm 2 m/s 749 mmHg 39%
    04:00 +31°C° 0 mm 2 m/s 749 mmHg 36%
    05:00 +34°C° 0 mm 2 m/s 749 mmHg 33%
    06:00 +35°C° 0 mm 2 m/s 749 mmHg 31%
    07:00 +36°C° 0 mm 2 m/s 749 mmHg 28%
    08:00 +39°C° 0 mm 2 m/s 749 mmHg 23%
    09:00 +41°C° 0 mm 2 m/s 750 mmHg 18%
    10:00 +45°C° 0 mm 2 m/s 750 mmHg 13%
    11:00 +46°C° 0 mm 3 m/s 749 mmHg 12%
    12:00 +47°C° 0 mm 3 m/s 749 mmHg 12%
    13:00 +47°C° 0 mm 3 m/s 748 mmHg 11%
    14:00 +48°C° 0 mm 4 m/s 747 mmHg 11%
    15:00 +48°C° 0 mm 5 m/s 747 mmHg 11%
    16:00 +49°C° 0 mm 7 m/s 746 mmHg 12%
    17:00 +45°C° 0 mm 6 m/s 746 mmHg 18%
    18:00 +41°C° 0 mm 5 m/s 747 mmHg 25%
    19:00 +37°C° 0 mm 5 m/s 747 mmHg 32%
    20:00 +36°C° 0 mm 4 m/s 748 mmHg 36%
    21:00 +35°C° 0 mm 4 m/s 748 mmHg 40%
    22:00 +34°C° 0 mm 3 m/s 749 mmHg 45%
    23:00 +34°C° 0 mm 3 m/s 749 mmHg 42%
    Mostrar mais